Location: Home
(40.5300°N, 105.0300°W)
Time: 10:52:00
(UTC-07:00)

STARLINK-2712 - Pass Details

Date: 27 October 2021
Orbit: 546 x 548 km, 53.1° (Epoch: 01 December)

Event Time Altitude Azimuth Distance (km) Brightness Sun altitude
Exits shadow 06:09:31 24° 252° (WSW) 1,143 4.7 -14.9°
Maximum altitude 06:11:48 59° 324° (NW) 633 3.7 -14.4°
Drops below altitude 10° 06:15:53 10° 45° (NE) 1,817 6.8 -13.7°
Sets 06:18:09 0° 49° (NE) 2,713 7.8 -13.2°
